Mobile, AL

8:15 AM CDT on April 28, 2017 (GMT -0500)
Mobile Regional

Weather History for KMOB - February, 2014

Change the Weather History Date:

Wednesday, February 19, 2014

  Actual Average Record
Temperature  
Mean Temperature 61 °F 55 °F  
Max Temperature 77 °F 65 °F 83 °F (2017)
Min Temperature 45 °F 44 °F 25 °F (1958)
Degree Days  
Heating Degree Days 4 11  
Month to date heating degree days 257 236  
Since 1 July heating degree days 1622 1357  
Cooling Degree Days 0 0  
Month to date cooling degree days 2 0  
Year to date cooling degree days 2 7  
Growing Degree Days 20 (Base 50)    
Moisture  
Dew Point 64 °F    
Average Humidity 78    
Maximum Humidity 100    
Minimum Humidity 56    
Precipitation  
Precipitation 0.03 in 0.19 in 2.57 in (1875)
Month to date precipitation 1.60 3.46  
Year to date precipitation 4.52 9.11  
Snow  
Snow 0.00 in 0.00 in - ()
Month to date snowfall T 0.1  
Since 1 July snowfall 1.3 0.1  
Snow Depth 0.00 in    
Sea Level Pressure  
Sea Level Pressure 30.07 in    
Wind  
Wind Speed 9 mph (SSW)    
Max Wind Speed 18 mph    
Max Gust Speed 21 mph    
Visibility 5 miles    
Events Fog , Rain    
T = Trace of Precipitation, MM = Missing Value Source: NWS Daily Summary

Daily Weather History Graph

Daily Weather History Graph

Search for Another Location

Airport or City:

Trip Planner

Search our weather history database for the weather conditions in past years. The results will help you decide how hot, cold, wet, or windy it might be!

Date:

Astronomy

Feb. 19, 2014 Rise Set
Actual Time 6:29 AM CST 5:44 PM CST
Civil Twilight 6:05 AM CST 6:08 PM CST
Nautical Twilight 5:37 AM CST 6:36 PM CST
Astronomical Twilight 5:09 AM CST 7:04 PM CST
Moon 10:14 PM CST (2/19) 8:56 AM CST (2/19)
Length of Visible Light 12h 03m
Length of Day
11h 14m
Waning Gibbous, 79% of the Moon is Illuminated
Feb 19
Waning Gibbous
Feb 22
Last Quarter
Mar 1
New
Mar 8
First Quarter
Mar 16
Full

Hourly Weather History & Observations

Time (CST) Temp. Dew Point Humidity Pressure Visibility Wind Dir Wind Speed Gust Speed Precip Events Conditions
12:09 AM 63.0 °F 63.0 °F 100% 30.09 in 10.0 mi South 9.2 mph - N/A   Overcast
12:56 AM 64.0 °F 64.0 °F 100% 30.09 in 6.0 mi SSW 8.1 mph - N/A   Overcast
1:28 AM 64.0 °F 64.0 °F 100% 30.10 in 2.5 mi South 11.5 mph - N/A   Overcast
1:44 AM 63.0 °F 63.0 °F 100% 30.09 in 1.2 mi South 9.2 mph - N/A   Overcast
1:56 AM 63.0 °F 63.0 °F 100% 30.08 in 0.5 mi South 8.1 mph - N/A Fog Fog
2:56 AM 64.0 °F 64.0 °F 100% 30.06 in 1.0 mi South 8.1 mph - N/A   Mist
3:56 AM 64.0 °F 64.0 °F 100% 30.06 in 1.5 mi South 11.5 mph - N/A   Overcast
4:11 AM 64.0 °F 64.0 °F 100% 30.07 in 2.5 mi South 9.2 mph - N/A   Overcast
4:36 AM 64.0 °F 64.0 °F 100% 30.08 in 1.8 mi South 8.1 mph - N/A   Overcast
4:56 AM 64.0 °F 64.0 °F 100% 30.07 in 1.5 mi South 9.2 mph - N/A   Overcast
5:41 AM 64.0 °F 64.0 °F 100% 30.10 in 0.2 mi SSW 6.9 mph - N/A Fog Fog
5:56 AM 63.0 °F 63.0 °F 100% 30.09 in 0.2 mi South 8.1 mph - N/A Fog Fog
6:56 AM 63.0 °F 63.0 °F 100% 30.11 in 0.2 mi WSW 4.6 mph - N/A Fog Fog
7:03 AM 63.0 °F 63.0 °F 100% 30.12 in 0.8 mi WSW 4.6 mph - 0.02 in Rain Light Rain
7:34 AM 63.0 °F 63.0 °F 100% 30.11 in 0.2 mi South 5.8 mph - 0.02 in Fog Light Drizzle
7:46 AM 63.0 °F 63.0 °F 100% 30.11 in 0.5 mi South 5.8 mph - 0.02 in Fog , Rain Light Rain
7:56 AM 63.0 °F 63.0 °F 100% 30.11 in 0.5 mi South 5.8 mph - 0.02 in Fog , Rain Light Rain
8:48 AM 64.0 °F 64.0 °F 100% 30.12 in 1.0 mi SW 4.6 mph - 0.01 in   Overcast
8:56 AM 64.0 °F 64.0 °F 100% 30.12 in 1.0 mi SW 5.8 mph - 0.01 in   Overcast
9:05 AM 64.0 °F 64.0 °F 100% 30.12 in 3.0 mi SW 4.6 mph - N/A   Overcast
9:14 AM 64.0 °F 64.0 °F 100% 30.12 in 4.0 mi SW 4.6 mph - N/A   Mostly Cloudy
9:39 AM 64.9 °F 64.9 °F 100% 30.13 in 4.0 mi SSW 5.8 mph - N/A   Overcast
9:56 AM 66.0 °F 63.0 °F 90% 30.13 in 4.0 mi SSW 5.8 mph - N/A   Overcast
10:14 AM 66.0 °F 64.0 °F 93% 30.13 in 5.0 mi SW 4.6 mph - N/A   Overcast
10:27 AM 68.0 °F 63.0 °F 84% 30.13 in 7.0 mi SW 5.8 mph - N/A   Overcast
10:56 AM 69.1 °F 69.1 °F 100% 30.12 in 7.0 mi SSW 6.9 mph - N/A   Overcast
11:20 AM 70.0 °F 64.0 °F 81% 30.11 in 7.0 mi SW 6.9 mph - N/A   Mostly Cloudy
11:40 AM 72.0 °F 63.0 °F 73% 30.10 in 10.0 mi Variable 4.6 mph - N/A   Mostly Cloudy
11:56 AM 72.0 °F 63.0 °F 73% 30.08 in 10.0 mi Variable 5.8 mph - N/A   Overcast
12:15 PM 73.0 °F 63.0 °F 71% 30.07 in 10.0 mi SW 6.9 mph - N/A   Mostly Cloudy
12:56 PM 73.9 °F 62.1 °F 66% 30.05 in 10.0 mi WSW 9.2 mph - N/A   Mostly Cloudy
1:56 PM 77.0 °F 61.0 °F 58% 30.02 in 10.0 mi South 13.8 mph - N/A   Mostly Cloudy
2:56 PM 73.9 °F 62.1 °F 66% 30.01 in 10.0 mi SSW 12.7 mph - N/A   Scattered Clouds
3:56 PM 73.9 °F 63.0 °F 68% 30.01 in 10.0 mi South 12.7 mph - N/A   Scattered Clouds
4:26 PM 72.0 °F 64.0 °F 76% 30.02 in 10.0 mi South 9.2 mph - N/A   Overcast
4:56 PM 70.0 °F 64.0 °F 81% 30.02 in 10.0 mi South 10.4 mph - N/A   Mostly Cloudy
5:56 PM 68.0 °F 64.9 °F 90% 30.03 in 10.0 mi SSE 8.1 mph - N/A   Mostly Cloudy
6:14 PM 68.0 °F 64.9 °F 90% 30.03 in 10.0 mi South 8.1 mph - N/A   Mostly Cloudy
6:56 PM 66.9 °F 64.0 °F 90% 30.02 in 10.0 mi SSE 8.1 mph - N/A   Mostly Cloudy
7:38 PM 64.9 °F 64.9 °F 100% 30.04 in 7.0 mi SSE 8.1 mph - N/A   Overcast
7:56 PM 66.0 °F 64.9 °F 96% 30.04 in 7.0 mi SSE 6.9 mph - N/A   Mostly Cloudy
8:56 PM 66.0 °F 64.9 °F 96% 30.04 in 6.0 mi South 10.4 mph - N/A   Overcast
9:29 PM 66.0 °F 64.9 °F 96% 30.04 in 6.0 mi South 10.4 mph - N/A   Overcast
9:56 PM 66.0 °F 64.9 °F 96% 30.03 in 6.0 mi South 6.9 mph - N/A   Overcast
10:56 PM 64.9 °F 64.0 °F 97% 30.02 in 7.0 mi South 12.7 mph - N/A   Overcast
11:35 PM 64.0 °F 64.0 °F 100% 30.02 in 4.0 mi South 11.5 mph - N/A   Overcast
11:56 PM 64.0 °F 64.0 °F 100% 30.00 in 7.0 mi SSE 10.4 mph - N/A   Overcast